Meteo pe oră la Chişinău

Astăzi, 19 Aprilie, Luni

Timp Temperatura Precipitaţii Vânt Presiune Umiditate
00:00 +10°C° 0.1 mm 1 m/s 754 mmHg 84%
01:00 +10°C° 0.1 mm 1 m/s 754 mmHg 84%
02:00 +10°C° 0.1 mm 1 m/s 753 mmHg 85%
03:00 +10°C° 0 mm 1 m/s 753 mmHg 84%
04:00 +10°C° 0 mm 1 m/s 753 mmHg 84%
05:00 +10°C° 0 mm 1 m/s 753 mmHg 83%
06:00 +10°C° 0.1 mm 1 m/s 753 mmHg 80%
07:00 +11°C° 0.1 mm 1 m/s 753 mmHg 78%
08:00 +11°C° 0.1 mm 1 m/s 753 mmHg 75%
09:00 +11°C° 0.1 mm 1 m/s 753 mmHg 72%
10:00 +12°C° 0.1 mm 1 m/s 753 mmHg 69%
11:00 +12°C° 0.1 mm 1 m/s 753 mmHg 67%
12:00 +12°C° 0.1 mm 1 m/s 752 mmHg 66%
13:00 +13°C° 0.1 mm 2 m/s 752 mmHg 65%
14:00 +13°C° 0.1 mm 2 m/s 752 mmHg 64%
15:00 +13°C° 0 mm 1 m/s 752 mmHg 63%
16:00 +13°C° 0 mm 1 m/s 751 mmHg 62%
17:00 +13°C° 0 mm 1 m/s 751 mmHg 62%
18:00 +12°C° 0 mm 1 m/s 751 mmHg 66%
19:00 +12°C° 0 mm 1 m/s 751 mmHg 70%
20:00 +11°C° 0 mm 1 m/s 751 mmHg 74%
21:00 +11°C° 0.1 mm 1 m/s 750 mmHg 77%
22:00 +10°C° 0.1 mm 2 m/s 750 mmHg 79%
23:00 +9°C° 0.1 mm 2 m/s 749 mmHg 81%

Mâine, 20 Aprilie, Marţi

Timp Temperatura Precipitaţii Vânt Presiune Umiditate
00:00 +9°C° 0.1 mm 3 m/s 749 mmHg 82%
01:00 +9°C° 0.1 mm 3 m/s 748 mmHg 84%
02:00 +8°C° 0.1 mm 4 m/s 748 mmHg 85%
03:00 +8°C° 0.1 mm 4 m/s 748 mmHg 85%
04:00 +7°C° 0.1 mm 4 m/s 747 mmHg 85%
05:00 +7°C° 0.1 mm 4 m/s 747 mmHg 85%
06:00 +7°C° 0.1 mm 4 m/s 747 mmHg 80%
07:00 +8°C° 0.1 mm 5 m/s 747 mmHg 76%
08:00 +8°C° 0.1 mm 5 m/s 748 mmHg 72%
09:00 +9°C° 0 mm 5 m/s 747 mmHg 65%
10:00 +11°C° 0 mm 6 m/s 747 mmHg 58%
11:00 +13°C° 0 mm 6 m/s 747 mmHg 51%
12:00 +13°C° 0 mm 6 m/s 747 mmHg 49%
13:00 +13°C° 0 mm 6 m/s 747 mmHg 48%
14:00 +13°C° 0 mm 6 m/s 747 mmHg 46%
15:00 +13°C° 0 mm 5 m/s 747 mmHg 47%
16:00 +13°C° 0 mm 5 m/s 747 mmHg 48%
17:00 +13°C° 0 mm 4 m/s 747 mmHg 49%
18:00 +12°C° 0 mm 3 m/s 748 mmHg 54%
19:00 +12°C° 0 mm 2 m/s 748 mmHg 60%
20:00 +11°C° 0 mm 1 m/s 749 mmHg 66%
21:00 +10°C° 0 mm 1 m/s 749 mmHg 68%
22:00 +10°C° 0 mm 1 m/s 749 mmHg 69%
23:00 +9°C° 0 mm 1 m/s 749 mmHg 71%

Poimâine, 21 Aprilie, Miercuri

Timp Temperatura Precipitaţii Vânt Presiune Umiditate
00:00 +9°C° 0 mm 1 m/s 750 mmHg 74%
01:00 +7°C° 0 mm 2 m/s 750 mmHg 77%
02:00 +7°C° 0 mm 2 m/s 750 mmHg 79%
03:00 +8°C° 0 mm 1 m/s 750 mmHg 81%
04:00 +7°C° 0 mm 1 m/s 750 mmHg 83%
05:00 +7°C° 0 mm 1 m/s 751 mmHg 85%
06:00 +9°C° 0 mm 1 m/s 751 mmHg 80%
07:00 +9°C° 0 mm 2 m/s 751 mmHg 74%
08:00 +10°C° 0 mm 2 m/s 752 mmHg 68%
09:00 +13°C° 0 mm 2 m/s 752 mmHg 61%
10:00 +13°C° 0 mm 3 m/s 752 mmHg 55%
11:00 +14°C° 0 mm 3 m/s 752 mmHg 48%
12:00 +16°C° 0 mm 3 m/s 752 mmHg 45%
13:00 +17°C° 0 mm 3 m/s 752 mmHg 42%
14:00 +18°C° 0 mm 3 m/s 752 mmHg 39%
15:00 +17°C° 0 mm 3 m/s 752 mmHg 43%
16:00 +16°C° 0 mm 3 m/s 752 mmHg 46%
17:00 +16°C° 0 mm 3 m/s 752 mmHg 50%
18:00 +15°C° 0 mm 2 m/s 752 mmHg 54%
19:00 +14°C° 0 mm 2 m/s 753 mmHg 57%
20:00 +13°C° 0 mm 2 m/s 753 mmHg 60%
21:00 +12°C° 0 mm 2 m/s 753 mmHg 63%
22:00 +12°C° 0 mm 2 m/s 753 mmHg 66%
23:00 +10°C° 0 mm 2 m/s 753 mmHg 68%

22 Aprilie, Joi

Timp Temperatura Precipitaţii Vânt Presiune Umiditate
00:00 +10°C° 0 mm 2 m/s 753 mmHg 70%
01:00 +9°C° 0 mm 2 m/s 753 mmHg 73%
02:00 +10°C° 0 mm 1 m/s 753 mmHg 75%
03:00 +9°C° 0 mm 1 m/s 753 mmHg 75%
04:00 +9°C° 0 mm 1 m/s 753 mmHg 75%
05:00 +8°C° 0 mm 0 m/s 754 mmHg 76%
06:00 +11°C° 0 mm 1 m/s 754 mmHg 70%
07:00 +12°C° 0 mm 1 m/s 754 mmHg 64%
08:00 +14°C° 0 mm 1 m/s 754 mmHg 58%
09:00 +15°C° 0 mm 2 m/s 754 mmHg 53%
10:00 +17°C° 0 mm 3 m/s 754 mmHg 48%
11:00 +18°C° 0 mm 3 m/s 754 mmHg 42%
12:00 +18°C° 0 mm 4 m/s 754 mmHg 40%
13:00 +19°C° 0 mm 4 m/s 754 mmHg 38%
14:00 +20°C° 0 mm 4 m/s 754 mmHg 36%
15:00 +19°C° 0 mm 4 m/s 754 mmHg 39%
16:00 +19°C° 0 mm 4 m/s 754 mmHg 41%
17:00 +19°C° 0 mm 4 m/s 753 mmHg 44%
18:00 +17°C° 0.1 mm 3 m/s 754 mmHg 49%
19:00 +16°C° 0.1 mm 3 m/s 754 mmHg 54%
20:00 +14°C° 0.1 mm 2 m/s 754 mmHg 59%
21:00 +13°C° 0 mm 2 m/s 754 mmHg 64%
22:00 +12°C° 0 mm 3 m/s 753 mmHg 68%
23:00 +11°C° 0 mm 3 m/s 753 mmHg 73%

23 Aprilie, Vineri

Timp Temperatura Precipitaţii Vânt Presiune Umiditate
00:00 +10°C° 0 mm 3 m/s 753 mmHg 75%
01:00 +10°C° 0 mm 3 m/s 753 mmHg 76%
02:00 +9°C° 0 mm 3 m/s 753 mmHg 78%
03:00 +9°C° 0 mm 3 m/s 753 mmHg 79%
04:00 +9°C° 0 mm 3 m/s 753 mmHg 80%
05:00 +9°C° 0 mm 2 m/s 752 mmHg 81%
06:00 +10°C° 0 mm 3 m/s 752 mmHg 75%
07:00 +12°C° 0 mm 3 m/s 753 mmHg 69%
08:00 +14°C° 0 mm 4 m/s 753 mmHg 63%
09:00 +15°C° 0.1 mm 4 m/s 753 mmHg 57%
10:00 +18°C° 0.1 mm 4 m/s 753 mmHg 50%
11:00 +19°C° 0.1 mm 5 m/s 753 mmHg 44%
12:00 +19°C° 0.1 mm 5 m/s 752 mmHg 44%
13:00 +19°C° 0.1 mm 5 m/s 752 mmHg 45%
14:00 +19°C° 0.1 mm 5 m/s 751 mmHg 46%
15:00 +15°C° 2.8 mm 6 m/s 752 mmHg 59%
16:00 +11°C° 2.8 mm 7 m/s 753 mmHg 71%
17:00 +7°C° 2.8 mm 8 m/s 753 mmHg 84%
18:00 +6°C° 0.8 mm 7 m/s 754 mmHg 85%
19:00 +5°C° 0.8 mm 6 m/s 755 mmHg 86%
20:00 +6°C° 0.8 mm 5 m/s 755 mmHg 87%
21:00 +6°C° 0.1 mm 4 m/s 755 mmHg 88%
22:00 +5°C° 0.1 mm 4 m/s 756 mmHg 88%
23:00 +5°C° 0.1 mm 3 m/s 756 mmHg 89%

24 Aprilie, Sâmbătă

Timp Temperatura Precipitaţii Vânt Presiune Umiditate
00:00 +5°C° 0 mm 4 m/s 756 mmHg 87%
01:00 +5°C° 0 mm 4 m/s 756 mmHg 86%
02:00 +4°C° 0 mm 4 m/s 756 mmHg 84%
03:00 +4°C° 0 mm 4 m/s 756 mmHg 84%
04:00 +4°C° 0 mm 4 m/s 756 mmHg 84%
05:00 +3°C° 0 mm 4 m/s 757 mmHg 84%
06:00 +5°C° 0 mm 4 m/s 757 mmHg 78%
07:00 +6°C° 0 mm 5 m/s 757 mmHg 73%
08:00 +7°C° 0 mm 5 m/s 758 mmHg 67%
09:00 +8°C° 0 mm 5 m/s 758 mmHg 58%
10:00 +9°C° 0 mm 5 m/s 758 mmHg 50%
11:00 +10°C° 0 mm 6 m/s 758 mmHg 42%
12:00 +12°C° 0 mm 5 m/s 758 mmHg 39%
13:00 +13°C° 0 mm 4 m/s 757 mmHg 37%
14:00 +14°C° 0 mm 4 m/s 757 mmHg 34%
15:00 +14°C° 0 mm 3 m/s 757 mmHg 34%
16:00 +15°C° 0 mm 2 m/s 757 mmHg 35%
17:00 +15°C° 0 mm 1 m/s 757 mmHg 35%
18:00 +13°C° 0 mm 2 m/s 757 mmHg 39%
19:00 +12°C° 0 mm 2 m/s 757 mmHg 43%
20:00 +10°C° 0 mm 2 m/s 757 mmHg 47%
21:00 +9°C° 0 mm 2 m/s 757 mmHg 49%
22:00 +9°C° 0 mm 2 m/s 757 mmHg 52%
23:00 +8°C° 0 mm 3 m/s 757 mmHg 54%
Arată mai mult